Location: ?????
(54.9266°N, 38.5527°E)
Time: 02:30:57
(UTC+00:00)

SAR-Lupe-4 - Visible Passes

Search period start: 19 July 2024 00:00
Search period end: 29 July 2024 00:00
Orbit: 476 x 482 km, 98.1° (Epoch: 02 April)

Date Brightness Start Highest point End Pass type
(mag) Time Alt. Az. Time Alt. Az. Time Alt. Az.
19 Jul 5.0 00:18:34 10° NNE 00:21:54 36° E 00:25:12 10° SSE visible
19 Jul 5.9 23:52:25 10° NE 23:55:06 20° E 23:57:47 10° SE visible
20 Jul 6.4 23:27:07 10° ENE 23:28:12 11° E 23:29:17 10° ESE visible
23 Jul 5.5 00:05:31 10° NE 00:08:33 26° E 00:11:35 10° SSE visible
23 Jul 6.2 23:39:38 10° NE 23:41:41 15° E 23:43:44 10° SE visible
26 Jul 5.1 00:18:40 10° NNE 00:21:57 33° E 00:25:12 10° SSE visible
26 Jul 6.0 23:52:30 10° NE 23:55:06 19° E 23:57:41 10° SE visible
27 Jul 6.5 23:27:30 10° ENE 23:28:09 10° E 23:28:48 10° E visible
